This demonstration page uses our WeatherBlox Daily Observations layout. Learn more.

Left ArrowRight Arrow

39.08367, -84.50855

Hourly Observations for February 10, 2016

Temp ( °F °C ) Dew Point ( °F °C ) Humidity (%) Winds ( mph kmh ) Pressure ( in mb ) Visibility ( mi km ) Precip ( " mm )
12:53 am 00:53 Cloudy 18 -7.8 10 -12.2 71 71 W 13 20 29.99 1016 10 16 N/A
1:53 am 01:53 Cloudy 17 -8.3 8 -13.3 68 68 W 12 19 29.98 1015 10 16 N/A
2:53 am 02:53 Cloudy 17 -8.3 12 -11.1 80 80 WSW 13 20 29.98 1015 9 14 N/A
3:03 am 03:03 Cloudy with Light Snow 18 -8 12 -11 79 79 WSW 10 17 30.00 1016 7 11 N/A
3:39 am 03:39 Cloudy 17 -8.3 10 -12.2 74 74 W 14 22 30.00 1016 10 16 N/A
3:53 am 03:53 Cloudy 17 -8.3 10 -12.2 74 74 W 12 19 29.99 1016 10 16 N/A
4:53 am 04:53 Cloudy 17 -8.3 10 -12.2 74 74 W 14 22 29.99 1016 9 14 N/A
5:53 am 05:53 Cloudy 17 -8.3 9 -12.8 70 70 W 16 26 30.01 1016 9 14 N/A
6:36 am 06:36 Cloudy with Light Snow 18 -8 10 -12 73 73 W 13 20 30.03 1017 2 3 N/A
6:38 am 06:38 Cloudy with Light Snow 18 -8 10 -12 73 73 W 15 24 30.03 1017 2 3 N/A
6:51 am 06:51 Cloudy with Light Snow 18 -8 12 -11 79 79 W 8 13 30.03 1017 3 4 N/A
6:53 am 06:53 Cloudy with Light Snow 17 -8.3 12 -11.1 80 80 WSW 10 17 30.02 1017 3 4 N/A
7:16 am 07:16 Cloudy with Light Snow 18 -8 10 -12 73 73 W 10 17 30.03 1017 5 8 N/A
7:53 am 07:53 Cloudy with Light Snow 16 -8.9 10 -12.2 77 77 W 15 24 30.03 1017 5 8 N/A
8:53 am 08:53 Cloudy with Light Snow 16 -8.9 9 -12.8 74 74 W 16 26 30.05 1018 6 10 N/A
9:28 am 09:28 Cloudy 16 -8.9 8 -13.3 71 71 W 13 20 30.06 1018 7 11 N/A
9:53 am 09:53 Cloudy with Light Snow 16 -8.9 8 -13.3 71 71 W 15 24 30.06 1018 4 6 N/A
10:53 am 10:53 Cloudy with Light Snow 17 -8.3 9 -12.8 70 70 W 13 20 30.08 1019 5 8 N/A
11:53 am 11:53 Cloudy with Light Snow 18 -7.8 10 -12.2 71 71 W 14 22 30.09 1019 4 6 N/A
12:53 pm 12:53 Cloudy 18 -7.8 8 -13.3 65 65 WSW 15 24 30.09 1019 9 14 N/A
1:51 pm 13:51 Cloudy with Light Snow 18 -8 10 -12 73 73 W 10 17 30.09 1019 8 13 N/A
1:53 pm 13:53 Cloudy with Light Snow 18 -7.8 10 -12.2 71 71 W 13 20 30.08 1019 8 13 N/A
2:53 pm 14:53 Cloudy with Light Snow 18 -7.8 8 -13.3 65 65 WSW 12 19 30.08 1019 8 13 N/A
3:53 pm 15:53 Cloudy with Light Snow 18 -7.8 10 -12.2 71 71 WSW 14 22 30.09 1019 5 8 N/A
4:13 pm 16:13 Cloudy 18 -8 9 -13 68 68 WSW 14 22 30.09 1019 9 14 N/A
4:53 pm 16:53 Cloudy 18 -7.8 7 -13.9 62 62 WSW 13 20 30.11 1020 10 16 N/A
5:53 pm 17:53 Cloudy 18 -7.8 6 -14.4 59 59 W 13 20 30.12 1020 10 16 N/A
6:53 pm 18:53 Cloudy 18 -7.8 7 -13.9 62 62 WSW 6 9 30.14 1021 10 16 N/A
7:53 pm 19:53 Cloudy with Light Snow 19 -7.2 8 -13.3 62 62 W 9 15 30.15 1021 6 10 N/A
8:53 pm 20:53 Cloudy 17 -8.3 6 -14.4 62 62 WNW 7 11 30.18 1022 10 16 N/A
9:53 pm 21:53 Mostly Clear 16 -8.9 5 -15 62 62 NW 7 11 30.19 1022 10 16 N/A
10:53 pm 22:53 Cloudy 16 -8.9 5 -15 62 62 NW 6 9 30.20 1023 10 16 N/A
11:53 pm 23:53 Cloudy 17 -8.3 6 -14.4 62 62 WNW 5 7 30.21 1023 10 16 N/A

Powered by AerisWeather